Weather History for KGHW - March, 2014

Change the Weather History Date:

Tuesday, March 4, 2014

  Actual Average Record
Temperature  
Mean Temperature 10 °F -  
Max Temperature 14 °F 33 °F 50 °F (1968)
Min Temperature 5 °F 14 °F -16 °F (1960)
Degree Days  
Heating Degree Days 56    
Moisture  
Dew Point 4 °F    
Average Humidity 77    
Maximum Humidity 85    
Minimum Humidity 67    
Precipitation  
Precipitation 0.00 in - - ()
Sea Level Pressure  
Sea Level Pressure 30.16 in    
Wind  
Wind Speed 8 mph (ENE)    
Max Wind Speed 13 mph    
Max Gust Speed -    
Visibility 10 miles    
Events Snow    
Averages and records for this station are not official NWS values.
T = Trace of Precipitation, MM = Missing Value Source: NWS Daily Summary

Daily Weather History Graph

Daily Weather History Graph

Search for Another Location

Airport or City:

Trip Planner

Search our weather history database for the weather conditions in past years. The results will help you decide how hot, cold, wet, or windy it might be!

Date:

Astronomy

Mar. 04, 2014 Rise Set
Actual Time 6:54 AM CST 6:12 PM CST
Civil Twilight 6:24 AM CST 6:42 PM CST
Nautical Twilight 5:50 AM CST 7:16 PM CST
Astronomical Twilight 5:15 AM CST 7:51 PM CST
Moon 8:28 AM CST (3/4) 10:34 PM CST (3/4)
Length of Visible Light 12h 17m
Length of Day
11h 18m
Waxing Crescent, 15% of the Moon is Illuminated
Mar 4
Waxing Crescent
Mar 8
First Quarter
Mar 16
Full
Mar 23
Last Quarter
Mar 30
New

Hourly Weather History & Observations

Time (CST) Temp. Windchill Dew Point Humidity Pressure Visibility Wind Dir Wind Speed Gust Speed Precip Events Conditions
12:13 AM 6.8 °F -4.8 °F 1.4 °F 79% 30.14 in 10.0 mi ESE 6.9 mph - N/A   Overcast
12:33 AM 6.8 °F -2.0 °F 1.4 °F 79% 30.14 in 10.0 mi ESE 4.6 mph - N/A   Overcast
12:54 AM 6.8 °F -2.0 °F 1.4 °F 79% 30.14 in 10.0 mi East 4.6 mph - N/A   Overcast
1:13 AM 6.8 °F -3.5 °F 1.4 °F 79% 30.14 in 10.0 mi East 5.8 mph - N/A   Overcast
1:33 AM 6.8 °F -2.0 °F 1.4 °F 79% 30.14 in 10.0 mi East 4.6 mph - N/A   Overcast
1:53 AM 6.8 °F -2.0 °F 1.4 °F 79% 30.14 in 10.0 mi ENE 4.6 mph - N/A   Overcast
2:13 AM 5.0 °F -6.9 °F 1.4 °F 85% 30.13 in 10.0 mi ENE 6.9 mph - N/A   Overcast
2:34 AM 6.8 °F -3.5 °F 1.4 °F 79% 30.14 in 7.0 mi East 5.8 mph - N/A Snow Light Snow
2:53 AM 6.8 °F -3.5 °F 1.4 °F 79% 30.13 in 10.0 mi East 5.8 mph - N/A   Overcast
3:13 AM 6.8 °F -4.8 °F 1.4 °F 79% 30.13 in 10.0 mi East 6.9 mph - N/A Snow Light Snow
3:33 AM 6.8 °F -3.5 °F 1.4 °F 79% 30.11 in 10.0 mi East 5.8 mph - N/A   Overcast
3:53 AM 6.8 °F -2.0 °F 1.4 °F 79% 30.12 in 10.0 mi East 4.6 mph - N/A   Overcast
4:13 AM 6.8 °F -2.0 °F 1.4 °F 79% 30.12 in 10.0 mi ENE 4.6 mph - N/A Snow Light Snow
4:33 AM 5.0 °F -5.6 °F 1.4 °F 85% 30.11 in 10.0 mi ENE 5.8 mph - N/A   Overcast
4:53 AM 5.0 °F -5.6 °F 1.4 °F 85% 30.11 in 10.0 mi ENE 5.8 mph - N/A   Overcast
5:14 AM 6.8 °F -6.9 °F 1.4 °F 79% 30.11 in 10.0 mi ENE 9.2 mph - N/A   Overcast
5:33 AM 6.8 °F -5.9 °F 1.4 °F 79% 30.12 in 10.0 mi ENE 8.1 mph - N/A   Mostly Cloudy
5:53 AM 6.8 °F -4.8 °F 1.4 °F 79% 30.12 in 7.0 mi ENE 6.9 mph - N/A Snow Light Snow
6:13 AM 6.8 °F -5.9 °F 1.4 °F 79% 30.12 in 10.0 mi ENE 8.1 mph - N/A   Mostly Cloudy
6:33 AM 6.8 °F -7.8 °F 1.4 °F 79% 30.12 in 10.0 mi ENE 10.4 mph - N/A   Scattered Clouds
6:53 AM 6.8 °F -6.9 °F 1.4 °F 79% 30.12 in 10.0 mi ENE 9.2 mph - N/A   Mostly Cloudy
7:13 AM 6.8 °F -6.9 °F 1.4 °F 79% 30.13 in 10.0 mi ENE 9.2 mph - N/A   Overcast
7:33 AM 6.8 °F -5.9 °F 1.4 °F 79% 30.13 in 10.0 mi ENE 8.1 mph - N/A   Overcast
7:54 AM 6.8 °F -6.9 °F 1.4 °F 79% 30.13 in 10.0 mi ENE 9.2 mph - N/A   Overcast
8:13 AM 6.8 °F -6.9 °F 1.4 °F 79% 30.13 in 10.0 mi ENE 9.2 mph - N/A   Overcast
8:33 AM 6.8 °F -6.9 °F 1.4 °F 79% 30.14 in 10.0 mi ENE 9.2 mph - N/A   Overcast
8:54 AM 6.8 °F -4.8 °F 1.4 °F 79% 30.15 in 10.0 mi ENE 6.9 mph - N/A   Overcast
9:13 AM 8.6 °F -2.6 °F 3.2 °F 79% 30.15 in 10.0 mi ENE 6.9 mph - N/A   Overcast
9:33 AM 8.6 °F -4.7 °F 3.2 °F 79% 30.15 in 10.0 mi ENE 9.2 mph - N/A   Overcast
9:53 AM 8.6 °F -5.5 °F 3.2 °F 79% 30.15 in 10.0 mi ENE 10.4 mph - N/A   Overcast
10:13 AM 8.6 °F -5.5 °F 3.2 °F 79% 30.14 in 10.0 mi ENE 10.4 mph - N/A   Overcast
10:34 AM 10.4 °F -3.3 °F 3.2 °F 73% 30.15 in 7.0 mi NE 10.4 mph - N/A   Overcast
10:53 AM 10.4 °F -3.3 °F 3.2 °F 73% 30.15 in 7.0 mi ENE 10.4 mph - N/A   Overcast
11:13 AM 10.4 °F -3.3 °F 3.2 °F 73% 30.14 in 10.0 mi ENE 10.4 mph - N/A   Mostly Cloudy
11:33 AM 10.4 °F -4.8 °F 3.2 °F 73% 30.14 in 10.0 mi East 12.7 mph - N/A   Clear
11:53 AM 10.4 °F -3.3 °F 3.2 °F 73% 30.15 in 10.0 mi ENE 10.4 mph - N/A   Clear
12:13 PM 10.4 °F -4.8 °F 3.2 °F 73% 30.15 in 10.0 mi ENE 12.7 mph - N/A   Clear
12:33 PM 10.4 °F -4.8 °F 3.2 °F 73% 30.14 in 10.0 mi ENE 12.7 mph - N/A   Clear
12:53 PM 12.2 °F -1.8 °F 5.0 °F 73% 30.14 in 10.0 mi East 11.5 mph - N/A   Clear
1:13 PM 12.2 °F -1.8 °F 3.2 °F 67% 30.14 in 10.0 mi ENE 11.5 mph - N/A   Clear
1:33 PM 14.0 °F 0.5 °F 5.0 °F 67% 30.13 in 10.0 mi ENE 11.5 mph - N/A   Scattered Clouds
1:53 PM 12.2 °F -1.8 °F 5.0 °F 73% 30.12 in 10.0 mi ENE 11.5 mph - N/A   Scattered Clouds
2:13 PM 12.2 °F -2.5 °F 5.0 °F 73% 30.13 in 10.0 mi ENE 12.7 mph - N/A   Clear
2:33 PM 12.2 °F -2.5 °F 5.0 °F 73% 30.12 in 10.0 mi ENE 12.7 mph - N/A   Clear
2:54 PM 14.0 °F 1.2 °F 5.0 °F 67% 30.13 in 10.0 mi ENE 10.4 mph - N/A   Clear
3:13 PM 12.2 °F -1.8 °F 5.0 °F 73% 30.14 in 10.0 mi East 11.5 mph - N/A   Clear
3:33 PM 12.2 °F -1.8 °F 5.0 °F 73% 30.14 in 10.0 mi East 11.5 mph - N/A   Clear
3:53 PM 14.0 °F -0.2 °F 5.0 °F 67% 30.14 in 10.0 mi East 12.7 mph - N/A   Clear
4:13 PM 12.2 °F -1.8 °F 5.0 °F 73% 30.15 in 10.0 mi East 11.5 mph - N/A   Clear
4:33 PM 12.2 °F -1.8 °F 5.0 °F 73% 30.15 in 10.0 mi East 11.5 mph - N/A   Clear
4:53 PM 12.2 °F -1.0 °F 5.0 °F 73% 30.16 in 10.0 mi East 10.4 mph - N/A   Clear
5:13 PM 12.2 °F -0.2 °F 5.0 °F 73% 30.16 in 10.0 mi East 9.2 mph - N/A   Clear
5:34 PM 12.2 °F -1.8 °F 5.0 °F 73% 30.17 in 10.0 mi East 11.5 mph - N/A   Clear
5:53 PM 12.2 °F -0.2 °F 5.0 °F 73% 30.17 in 10.0 mi East 9.2 mph - N/A   Clear
6:13 PM 12.2 °F -0.2 °F 5.0 °F 73% 30.18 in 10.0 mi ENE 9.2 mph - N/A   Clear
6:33 PM 12.2 °F 0.7 °F 5.0 °F 73% 30.19 in 10.0 mi ENE 8.1 mph - N/A   Clear
6:53 PM 12.2 °F 2.9 °F 6.8 °F 79% 30.20 in 10.0 mi ENE 5.8 mph - N/A   Scattered Clouds
7:13 PM 12.2 °F 2.9 °F 6.8 °F 79% 30.21 in 10.0 mi ENE 5.8 mph - N/A   Mostly Cloudy
7:33 PM 12.2 °F 2.9 °F 6.8 °F 79% 30.22 in 10.0 mi ENE 5.8 mph - N/A   Mostly Cloudy
7:53 PM 12.2 °F 2.9 °F 6.8 °F 79% 30.22 in 10.0 mi ENE 5.8 mph - N/A   Scattered Clouds
8:14 PM 12.2 °F 1.7 °F 6.8 °F 79% 30.22 in 10.0 mi NE 6.9 mph - N/A   Clear
8:33 PM 12.2 °F 1.7 °F 6.8 °F 79% 30.23 in 10.0 mi NE 6.9 mph - N/A   Clear
8:53 PM 12.2 °F 1.7 °F 6.8 °F 79% 30.22 in 10.0 mi NE 6.9 mph - N/A   Clear
9:13 PM 12.2 °F 1.7 °F 6.8 °F 79% 30.23 in 10.0 mi NE 6.9 mph - N/A   Clear
9:33 PM 12.2 °F 2.9 °F 6.8 °F 79% 30.24 in 10.0 mi NE 5.8 mph - N/A   Clear
9:53 PM 12.2 °F 0.7 °F 6.8 °F 79% 30.24 in 10.0 mi NE 8.1 mph - N/A   Scattered Clouds
10:13 PM 12.2 °F 0.7 °F 5.0 °F 73% 30.25 in 10.0 mi NE 8.1 mph - N/A   Overcast
10:33 PM 12.2 °F 0.7 °F 5.0 °F 73% 30.25 in 10.0 mi NE 8.1 mph - N/A   Overcast
10:53 PM 12.2 °F 2.9 °F 6.8 °F 79% 30.26 in 10.0 mi NE 5.8 mph - N/A   Scattered Clouds
11:13 PM 12.2 °F 1.7 °F 5.0 °F 73% 30.26 in 10.0 mi NE 6.9 mph - N/A   Clear
11:33 PM 12.2 °F 0.7 °F 5.0 °F 73% 30.26 in 10.0 mi ENE 8.1 mph - N/A   Scattered Clouds
11:53 PM 12.2 °F 0.7 °F 6.8 °F 79% 30.26 in 10.0 mi ENE 8.1 mph - N/A   Mostly Cloudy